This is the latest recevied weather packets stored in our database for station/object WA1TYB-13. If no packets are shown the sender has not sent any weather packets the latest 10 day(s).
| Time | Temp. | Humidity | Pressure | Rain* | Wind** | Luminosity | Snow |
|---|---|---|---|---|---|---|---|
| 1777742589 | 15° C | 40% | 1021.2 hPa | 0 mm | - | 673 W/m² | - |
| 1777742285 | 15.56° C | 42% | 1021.4 hPa | 0 mm | - | 669 W/m² | - |
| 1777741982 | 15° C | 42% | 1021.4 hPa | 0 mm | - | 671 W/m² | - |
| 1777741679 | 15° C | 43% | 1021.4 hPa | 0 mm | - | 659 W/m² | - |
| 1777741375 | 13.89° C | 44% | 1021.6 hPa | 0 mm | - | 573 W/m² | - |
| 1777741071 | 14.44° C | 47% | 1021.5 hPa | 0 mm | - | 547 W/m² | - |
| 1777740768 | 14.44° C | 43% | 1021.6 hPa | 0 mm | - | 567 W/m² | - |
| 1777740465 | 13.89° C | 45% | 1021.5 hPa | 0 mm | - | 550 W/m² | - |
| 1777740163 | 13.89° C | 43% | 1021.5 hPa | 0 mm | - | 544 W/m² | - |
| 1777739858 | 13.89° C | 47% | 1021.5 hPa | 0 mm | - | 520 W/m² | - |
| 1777739555 | 13.89° C | 44% | 1021.7 hPa | 0 mm | - | 540 W/m² | - |
| 1777739252 | 13.33° C | 45% | 1021.7 hPa | 0 mm | - | 502 W/m² | - |
| 1777738949 | 13.89° C | 45% | 1021.7 hPa | 0 mm | - | 499 W/m² | - |
| 1777738646 | 13.33° C | 46% | 1021.6 hPa | 0 mm | - | 452 W/m² | - |
| 1777738342 | 13.33° C | 45% | 1021.7 hPa | 0 mm | - | 425 W/m² | - |
| 1777738041 | 13.33° C | 45% | 1022 hPa | 0 mm | - | 465 W/m² | - |
| 1777737739 | 12.78° C | 45% | 1022 hPa | 0 mm | - | 457 W/m² | - |
| 1777737437 | 12.78° C | 47% | 1021.8 hPa | 0 mm | - | 431 W/m² | - |
| 1777737134 | 12.78° C | 46% | 1021.8 hPa | 0 mm | - | 408 W/m² | - |
| 1777736829 | 12.22° C | 45% | 1022.3 hPa | 0 mm | - | 423 W/m² | - |
| 1777736212 | 12.22° C | 46% | 1022.1 hPa | 0 mm | - | 438 W/m² | - |
| 1777735908 | 11.67° C | 46% | 1022.2 hPa | 0 mm | - | 437 W/m² | - |
| 1777735606 | 11.67° C | 47% | 1022.3 hPa | 0 mm | - | 331 W/m² | - |
| 1777735303 | 11.11° C | 50% | 1022.2 hPa | 0 mm | - | 318 W/m² | - |
| 1777735001 | 10.56° C | 49% | 1022.3 hPa | 0 mm | - | 264 W/m² | - |
* Rain latest hour (hover to see other rain measurements)
** Current wind speed in m/s (hover to see current wind gust speed)